www.pogodaiklimat.ru

Погода и климат >> Архив погоды >> Мексика >> Арриага


ПОГОДА в Арриаге

  • Прогноз погоды в Арриаге
  • Монитор погоды в Арриаге

АРХИВ ПОГОДЫ в Арриаге

Время (UTC), дата Ветер
(напр.,м/с)
 
Видим.   Явления Облачность Т
(С)
Тd
(С)
f
(%)
Тe
(С)
Тes
(С)
Комфортность P
(гПа)
Po
(гПа)
Тmin
(С)
Tmax
(С)
R
(мм)
R24
(мм)
S
(см)
03 9.07 штиль 0 1000 м {морось} 4/0 2000 м
[Ac lent]
+25.2 +23.3 89 +34 +34 очень
душно
1013.9 1008.4 7
06 9.07 штиль 0 1000 м 5/5 800 м
[Sc]
+25.5 +22.0 81 +33 +33 очень
душно
1014.9 1009.4 +36.9
09 9.07 штиль 0 1000 м {морось} 3/3 800 м
[Sc]
+24.9 +22.2 85 +32 +32 очень
душно
1012.0 1006.5 1
12 9.07 штиль 0 3000 м 6/0 2000 м
[Ac lent]
+24.5 +22.4 88 +32 +32 очень
душно
1012.2 1006.6 +20.0 +36.9
15 9.07 штиль 0 5000 м 4/0
[Ci]
+29.3 +24.1 74 +41 +54 опасность
перегрева
1013.5 1007.9
18 9.07 С 1 5000 м 8/4 800 м
[Cu med, cong Cs]
+33.0 +27.3 72 +52 +65 опасность
перегрева
1013.2 1007.7 +20.0 +34.4
21 9.07 штиль 0 5000 м зарница 5/4 800 м
[Cb calv Cs]
+33.8 +28.4 73 +55 +66 опасность
перегрева
1011.4 1005.9
00 10.07 штиль 0 5000 м 6/3 800 м
[Cb cap Ac und]
+31.6 +29.0 86 +55 +55 опасность
перегрева
1010.9 1005.5 +20.0 +35.2
03 10.07 штиль 0 1000 м зарница 8/4 800 м
[Cb cap Ac As]
+28.7 +26.5 88 +44 +44 опасность
перегрева
1013.5 1008.1 0.0
06 10.07 штиль 0 1000 м в посл. час морось 6/3 800 м
[Cb cap Ac As]
+27.6 +26.3 93 +42 +42 опасность
перегрева
1013.6 1008.2 +20.0 +35.2 2
09 10.07 штиль 0 1000 м зарница {гроза} 6/3 800 м
[Cb cap Ac lent]
+25.6 +24.8 95 +36 +36 очень
душно
1012.9 1007.4
12 10.07 штиль 0 3000 м 4/3 800 м
[Cu med, cong Cs]
+24.6 +23.9 96 +34 +34 очень
душно
1013.2 1007.6 +22.0 +35.2
15 10.07 штиль 0 4000 м 6/3 800 м
[Cu med, cong Ac lent Cs]
+28.2 +25.7 86 +42 +50 опасность
перегрева
1015.2 1009.6
18 10.07 штиль 0 5000 м 6/5 1020 м
[Sc Ac cuf]
+31.8 +27.4 78 +51 +64 опасность
перегрева
1015.0 1009.4 +22.0 +32.8
21 10.07 штиль 0 5000 м 8/4 800 м
[Sc Ac trans]
+32.8 +28.2 77 +54 +61 опасность
перегрева
1012.7 1007.2
00 11.07 штиль 0 5000 м 8/4 800 м
[Sc Ac As]
+29.8 +28.4 92 +50 +51 опасность
перегрева
1012.6 1007.1 +22.0 +35.0
03 11.07 штиль 0 100 м 4/4 800 м
[Cu hum]
+28.2 +25.8 87 +42 +42 опасность
перегрева
1012.6 1007.2
06 11.07 штиль 0 100 м 4/4 800 м
[Sc diur, vesp]
+27.8 +26.2 91 +42 +42 опасность
перегрева
1012.7 1007.2 +22.0 +35.0
09 11.07 С 2 100 м ясно +29.2 +24.8 77 +42 +42 опасность
перегрева
1010.0 1004.5
12 11.07 штиль 0 4000 м 4/0 2000 м
[Ac inh]
+27.6 +25.2 87 +40 +40 очень
душно
1010.7 1005.2 +24.0 +35.0
15 11.07 С 2 3000 м 5/0
[Cs]
+30.6 +25.5 74 +45 +54 опасность
перегрева
1019.9 1006.4
18 11.07 С 2 2000 м 4/4 840 м
[Sc diur, vesp]
+35.0 +27.2 64 +53 +67 опасность
перегрева
1011.5 1006.0 +24.0 +36.0
21 11.07 Ю 1 5000 м 8/8 800 м
[Sc]
+33.4 +27.7 72 +53 +56 опасность
перегрева
1009.5 1004.0
00 12.07 штиль 0 4000 м {морось} 6/3
[Cb calv Ac und]
+28.9 +25.0 80 +42 +42 опасность
перегрева
1008.9 1003.5 +24.0 +37.2 1
03 12.07 штиль 0 1000 м 5/0 2000 м
[Ac lent]
+27.0 +23.9 83 +37 +37 очень
душно
1010.7 1005.2
06 12.07 штиль 0 1000 м 6/3 800 м
[Sc diur, vesp Ac lent]
+26.2 +23.2 84 +35 +35 очень
душно
1011.8 1006.3 +37.2
09 12.07 штиль 0 1000 м 6/6 800 м
[Sc]
+25.9 +22.4 81 +34 +34 очень
душно
1010.0 1004.5
12 12.07 штиль 0 3000 м {дождь} 4/4 800 м
[Sc]
+24.8 +21.6 82 +32 +32 очень
душно
1011.4 1005.8 +20.0 +37.2 33
15 12.07 штиль 0 5000 м 5/5 800 м
[Cu hum]
+27.4 +23.4 79 +37 +44 очень
душно
1010.5 1005.0
18 12.07 Ю 1 5000 м 3/3 800 м
[Cu hum]
+33.0 +28.5 77 +55 +73 опасность
перегрева
1009.4 1003.9 +20.0 +34.9
21 12.07 С 1 3000 м 5/5 840 м
[Sc diur, vesp]
+33.0 +27.8 74 +53 +61 опасность
перегрева
1007.7 1002.3
00 13.07 штиль 0 2000 м гроза без осадков 8/1 840 м
[Cb cap As op]
+30.4 +27.0 82 +48 +48 опасность
перегрева
1009.3 1003.8 +20.0 +35.6
03 13.07 штиль 0 2000 м слаб. морось 10/1 840 м
[Cb cap As op]
+25.6 +24.5 94 +36 +36 очень
душно
1012.1 1006.6 7
06 13.07 штиль 0 2000 м {морось} 9/0 2000 м
[Ac lent]
+25.0 +23.6 92 +34 +34 очень
душно
1012.6 1007.1 +18.8 +35.6 11
09 13.07 штиль 0 2000 м дождь 10/3 840 м
[Sc As op]
+24.4 +23.3 94 +33 +33 очень
душно
1012.3 1006.7 14
12 13.07 штиль 0 3000 м {морось} 6/0 2000 м
[Ac lent]
+24.2 +23.4 95 +32 +32 очень
душно
1011.1 1005.6 +23.0 +35.6 14
15 13.07 штиль 0 3000 м 4/0
[Cs]
+28.0 +23.9 78 +39 +52 опасность
солнечного
удара
1012.4 1006.8
18 13.07 штиль 0 3000 м 3/3 840 м
[Cu med, cong]
+32.6 +26.6 71 +50 +70 опасность
перегрева
1011.9 1006.3 +23.0 +34.0
21 13.07 Ю 1 5000 м 6/6 800 м
[Sc diur, vesp]
+33.8 +27.6 70 +53 +60 опасность
перегрева
1010.2 1004.7
00 14.07 штиль 0 5000 м 4/0
[Cs]
+30.8 +26.2 77 +47 +47 опасность
перегрева
1009.6 1004.2 +23.0 +36.2
03 14.07 штиль 0 1000 м 8/0 2000 м
[Ac lent Cs]
+28.5 +26.3 88 +43 +43 опасность
перегрева
1011.3 1005.8
06 14.07 штиль 0 1000 м 4/0 2000 м
[Ac lent]
+26.8 +24.4 87 +38 +38 очень
душно
1012.7 1007.2 +23.0 +36.2
09 14.07 штиль 0 1000 м 4/0
[Ac lent]
+25.4 +23.5 89 +34 +34 очень
душно
1011.2 1005.6
12 14.07 штиль 0 2000 м 6/0 2000 м
[Ac lent]
+25.0 +23.3 90 +33 +33 очень
душно
1012.1 1006.5 +22.8 +36.2
15 14.07 штиль 0 5000 м 6/0 2000 м
[Ac lent]
+29.2 +24.8 77 +42 +49 опасность
перегрева
1013.3 1007.7
18 14.07 Ю 1 5000 м 8/8 800 м
[Cu med, cong]
+33.2 +25.4 64 +48 +53 опасность
перегрева
1012.8 1007.2 +22.8 +34.8
21 14.07 Ю 1 5000 м 6/6 1020 м
[Sc]
+32.8 +27.2 72 +51 +57 опасность
перегрева
1010.9 1005.4
00 15.07 штиль 0 5000 м {морось} 5/5 1020 м
[Sc]
+30.4 +25.9 77 +45 +46 опасность
перегрева
1009.9 1004.5 +22.8 +34.4 1
03 15.07 штиль 0 1000 м 8/5 1000 м
[St Ac trans Ci]
+29.5 +25.6 80 +44 +44 опасность
перегрева
1011.4 1005.9
09 15.07 штиль 0 1000 м 9/3 1020 м
[Sc Ac cuf]
+27.0 +25.9 94 +40 +40 очень
душно
1010.9 1005.4
12 15.07 штиль 0 3000 м 6/3 800 м
[Cu med, cong Ac lent]
+26.4 +25.0 92 +38 +38 очень
душно
1010.9 1005.4 +23.0 +34.0
15 15.07 штиль 0 5000 м 4/3 1020 м
[Sc diur, vesp Cs]
+30.0 +26.3 81 +46 +56 опасность
перегрева
1012.2 1006.7
18 15.07 Ю 2 5000 м 5/4 1020 м
[Sc diur, vesp Ac lent]
+34.2 +28.3 71 +55 +67 опасность
перегрева
1011.6 1006.1 +23.0 +35.2
21 15.07 штиль 0 5000 м 8/8 1020 м
[Sc diur, vesp]
+33.8 +29.6 79 +60 +63 опасность
перегрева
1009.5 1004.1
00 16.07 штиль 0 5000 м 8/8 1020 м
[Sc diur, vesp]
+31.8 +29.0 85 +55 +55 опасность
перегрева
1012.9 1004.1 +23.0 +35.6

 

Местоположение метеостанции Арриага (Мексика): широта 16.23 долгота -93.90 высота над уровнем моря 48 м.

В архиве по умолчанию представлена погода в Арриаге за последнюю неделю. Архивные данные за месяц целиком и за предыдущие месяцы, начиная с января 2011 года, Вы можете получить, выбрав интересующий диапазон дат из раскрывающегося списка и нажав кнопку "Ввод!".


*Определитесь, кто Вы:
робот инопланетянин человек

Внимание! Время в таблицах - всемирное. Для получения местного времени необходимо прибавить поправку, которая равна -6 ч.

Смотрите также архив погоды в соседних городах и на ближайших метеорологических станциях:

Погода в Тустла-Гутьерресе (Мексика) (100 км)
Погода в Салина-Крусе (Мексика) (137 км)
Погода в Сан-Кристобаль-де-лас-Касасе (Мексика) (147 км)
Погода в Комитане (Мексика) (189 км)
Погода в Коацакоалькосе (Мексика) (218 км)
Погода в Вильяэрмосе (Мексика) (220 км)
Погода в Тапачуле (Мексика) (229 км)
Погода в Уэуэтенанго (Гватемала) (280 км)
Погода в Пуэрто-Анхеле (Мексика) (283 км)
Погода в Оахаке (Мексика) (313 км)

Пояснения к столбцам:

Ветер - указаны скорость ветра в м/с - средняя за 10 мин, порывы в срок и между сроками (в фигурных скобках) и направление, откуда дует ветер: С - северный, СВ - северо-восточный, В - восточный, ЮВ - юго-восточный, Ю - южный, ЮЗ - юго-западный, З - западный, СЗ - северо-западный.
Видимость - горизонтальная дальность видимости в метрах или километрах. При видимости от 1 до 10 км при отсутствии осадков обычно наблюдается дымка, при ухудшении видимости до 1 км и менее - туман. В сухую погоду видимость может ухудшаться дымом, пылью или мглою.
Явления - указаны атмосферные явления, наблюдавшиеся в срок или в последний час перед сроком; фигурными скобками обозначены явления, наблюдавшиеся между сроками (за 1-3 часа до срока); квадратными скобками обозначены град или гололедные отложения с указанием их диаметра в мм.
Облачность - указаны через наклонную черту общая и нижняя облачность в баллах и высота нижней границы облаков в метрах; квадратными скобками обозначены формы облаков: Ci - перистые, Cs - перисто-слоистые, Cc - перисто-кучевые, Ac - высококучевые, As - высокослоистые, Sc - слоисто-кучевые, Ns - слоисто-дождевые, Cu - кучевые, Cb - кучево-дождевые. Подробнее классификацию облаков см. в Атласе облаков (PDF).
T - Температура воздуха - температура, измеренная на высоте 2 м над землей.
Td - Температура точки росы - температура, при понижении до которой содержащийся в воздухе водяной пар достигнет насыщения.
f - Относительная влажность воздуха - влажноcть воздуха, измеренная на высоте 2 м над землей.
Te - Эффективная температура - температура, которую ощущает одетый по сезону человек в тени. Характеристика душности погоды. При расчете учитывается влияние влажности воздуха и скорости ветра на теплоощущения человека.
Tes - Эффективная температура на солнце - температура, которую ощущает человек, с поправкой на солнечный нагрев. Характеристика знойности погоды. Зависит от высоты солнца над горизонтом, облачности и скорости ветра. Ночью, в пасмурную погоду, а также при ветре 12 м/с и более поправка равна нулю.
P - Атмосферное давление - приведенное к уровню моря атмосферное давление.
Po - Атмосферное давление - измеренное на уровне метеостанции атмосферное давление.
Tmin - Минимальная температура - минимум температуры воздуха на высоте 2 м над землей.
Tmax - Максимальная температура - максимум температуры воздуха на высоте 2 м над землей.
R - Количество осадков - Количество выпавших осадков за период времени, мм. При наведении курсора мыши на число - период времени, за который выпало указанное количество осадков.
R24 - Количество осадков - Количество выпавших осадков за 24 часа, мм.
S - Снежный покров - Высота снежного покрова, см. При наведении курсора мыши на число - состояние снежного покрова и степень покрытия местности в баллах.